[[{"header":{"parameterUnit":"m.s-1","parameterCategory":1,"la1":30.2991,"la2":30.254,"lo1":-89.0895,"lo2":-89.0444,"dy":0.0017,"dx":0.0017,"nx":28,"ny":28,"refTime":"2025-04-06T03:00:00:Z","depth":0,"parameterNumber":2,"parameterNumberName":"U-component_of_WINDS"},"data":[0,0,0,0,0,0,0,0,0,0,0,0,0,0,0,0,0,0,0,0,0,0,0,0,0,0,0,0,0,0,0,0,0,0,0,0,0,0,0,0,0,0,0,0,0,0,0,0,0,0,0,0,0,0,0,0,0,0,2.7117,2.7118,0,2.7171,2.7172,2.7172,2.7153,2.7152,2.7151,2.7149,2.7204,2.7206,2.7209,0,0,0,0,0,0,0,0,0,0,0,0,0,2.6997,2.7,2.7117,2.7118,2.7118,2.7171,2.7172,2.7172,2.7153,2.7152,2.715,2.7149,2.7203,2.7206,2.7209,0,0,0,0,0,0,0,0,0,0,0,0,0,2.705,2.7,2.7117,2.7115,2.7115,2.7171,2.7172,2.7173,2.7153,2.7152,2.715,2.7148,2.7202,2.7206,2.721,2.727,0,0,2.7222,2.7223,0,0,0,0,0,0,0,0,2.7047,2.7054,2.7115,2.7115,2.7116,2.7153,2.715,2.7205,2.7154,2.7139,2.7149,2.7147,2.7189,2.7193,2.7208,2.7272,2.7275,2.7222,2.7224,2.7226,2.7227,0,0,0,0,0,0,0,2.7043,2.7052,2.7138,2.7115,2.7116,2.7112,2.7117,2.716,2.7173,2.714,2.7139,2.7146,2.7189,2.7204,2.7209,2.7276,2.7222,2.7225,2.7228,2.7229,2.7394,2.7396,0,0,0,0,0,0,2.704,2.7049,2.7137,2.714,2.7076,2.7115,2.7121,2.7143,2.7173,2.7176,2.7147,2.7144,2.7198,2.7204,2.7211,2.7284,2.7226,2.7229,2.7232,2.7392,2.7395,2.7397,0,0,0,0,0,0,2.7037,2.7048,2.7134,2.7094,2.7105,2.7119,2.7144,2.7145,2.716,2.7178,2.718,2.716,2.7197,2.7205,2.7256,2.7285,2.7231,2.7235,2.739,2.7393,2.7396,2.743,0,0,0,0,0,0,2.7034,2.7047,2.7069,2.7095,2.7107,2.7179,2.7146,2.7148,2.7167,2.7164,2.7191,2.7194,2.7196,2.725,2.726,2.729,2.7238,2.7387,2.7391,2.7395,2.7426,2.7434,2.744,0,0,0,0,0,2.7029,2.7077,2.7071,2.7081,2.7136,2.718,2.7187,2.7189,2.717,2.7193,2.7205,2.7193,2.7281,2.7255,2.7266,2.7298,2.7385,2.739,2.7394,2.7423,2.7432,2.744,0,0,0,0,0,0,2.7053,2.708,2.7074,2.713,2.7153,2.7177,2.7206,2.7199,2.7228,2.7224,2.7225,2.7231,2.7284,2.7296,2.7267,2.7358,2.733,2.7337,2.7348,2.7357,2.7364,2.736,2.7241,0,0,0,0,0,2.7066,2.7099,2.712,2.7168,2.718,2.7192,2.7211,2.7211,2.7234,2.7244,2.7259,2.7282,2.7315,2.7337,2.7368,2.7428,2.7434,2.7455,2.7462,2.7468,2.7474,2.7508,2.7518,2.7412,2.7412,2.7412,0,0,2.709,2.7109,2.713,2.7174,2.7192,2.7227,2.72,2.7238,2.7264,2.725,2.7298,2.7311,2.7337,2.7393,2.7418,2.7404,2.7505,2.7474,2.7479,2.7481,2.7514,2.7524,2.7532,2.7415,2.7415,2.7414,0,0,2.7154,2.7171,2.7213,2.7232,2.726,2.7267,2.7278,2.7303,2.731,2.736,2.735,2.7382,2.7438,2.7458,2.7475,2.7548,2.7538,2.7558,2.7595,2.7628,2.7636,2.7643,2.767,2.7679,2.7564,2.7564,2.7564,0,2.7181,2.7234,2.7236,2.7275,2.7295,2.7285,2.7328,2.7346,2.7383,2.7397,2.7381,2.7453,2.747,2.7531,2.7549,2.7563,2.7575,2.7555,2.7635,2.7642,2.7649,2.7674,2.7684,2.7566,2.7566,2.7566,2.7566,0,2.7266,2.7303,2.7334,2.737,2.7394,2.7435,2.7444,2.7467,2.7466,2.7475,2.7526,2.7546,2.7582,2.7596,2.7595,2.7658,2.7648,2.7634,2.7605,2.7661,2.7685,2.7695,2.7569,2.7569,2.7568,2.7567,0,0,2.7345,2.7383,2.7394,2.7411,2.7442,2.747,2.7512,2.7547,2.7568,2.7594,2.7628,2.7678,2.7665,2.7685,2.7685,2.7714,2.7772,2.7696,2.7697,2.771,2.7843,2.7854,2.7865,2.7766,2.7768,2.7769,2.7841,0,2.741,2.7483,2.7487,2.7553,2.7587,2.7579,2.7615,2.7638,2.7648,2.7679,2.769,2.7725,2.7706,2.7718,2.7746,2.7759,2.7798,2.7754,2.7799,2.78,2.7792,2.7877,2.7888,2.7954,2.785,2.7852,2.7853,0,2.7497,2.7526,2.7596,2.7623,2.7637,2.767,2.7703,2.7733,2.7759,2.7765,2.7788,2.7785,2.7828,2.7799,2.7858,2.7828,2.7847,2.7856,2.7859,2.7863,2.7829,2.7883,2.7976,2.7986,2.7867,2.7866,2.7865,0,2.7547,2.7604,2.7654,2.7668,2.7701,2.7724,2.7739,2.7763,2.7785,2.7815,2.7829,2.7863,2.7882,2.7908,2.7915,2.7893,2.7975,2.7946,2.7981,2.7981,2.7998,2.7996,2.8094,2.801,2.801,2.801,2.801,0,2.762,2.7663,2.7677,2.7707,2.7755,2.776,2.7808,2.7821,2.7844,2.7877,2.7871,2.7903,2.791,2.7943,2.7948,2.7997,2.8005,2.8011,2.8012,2.8012,2.8011,2.8023,2.8019,2.8012,2.8012,2.8011,2.8011,0,2.7684,2.7695,2.7749,2.7776,2.7784,2.7818,2.7842,2.7871,2.7881,2.7923,2.7933,2.7949,2.7988,2.7998,2.8043,2.8047,2.8105,2.8101,2.8096,2.8096,2.813,2.8127,2.8239,2.8255,2.8161,2.8162,2.8162,0,2.773,2.7763,2.7794,2.7816,2.7832,2.7868,2.789,2.7897,2.792,2.7954,2.798,2.8018,2.8048,2.811,2.8126,2.8161,2.8159,2.8196,2.8164,2.8163,2.8159,2.8157,2.8161,2.8201,2.8202,2.8203,2.8204,0,2.781,2.7814,2.7847,2.7882,2.7909,2.7937,2.7964,2.7982,2.7992,2.8019,2.8059,2.8083,2.813,2.8168,2.8204,2.822,2.8214,2.8214,2.8224,2.8224,2.8219,2.8222,2.8112,2.8211,2.8211,2.821,2.821,2.8209,2.7867,2.7896,2.7923,2.796,2.7981,2.8006,2.8036,2.805,2.8083,2.8123,2.8125,2.8168,2.8195,2.8243,2.8261,2.8295,2.8283,2.8298,2.8301,2.8305,2.8308,2.8214,2.8301,2.8301,2.8301,2.8301,2.8301,0,2.7946,2.7964,2.7998,2.8036,2.8065,2.8058,2.8088,2.8113,2.8151,2.8177,2.8207,2.8254,2.8291,2.831,2.8348,2.8371,2.837,2.8381,2.8379,2.8383,2.8316,2.8303,2.8382,2.8382,2.8382,2.8382,2.8382,2.8382,2.7991,2.8041,2.8049,2.8109,2.8126,2.8169,2.8187,2.821,2.8231,2.8283,2.8314,2.8327,2.8351,2.839,2.8424,2.8429,2.8443,2.8456,2.8459,2.8396,2.8388,2.838,2.8368,2.8459,2.8459,2.8524,2.8524,2.8525]},{"header":{"parameterUnit":"m.s-1","parameterCategory":1,"la1":30.2991,"la2":30.254,"lo1":-89.0895,"lo2":-89.0444,"dy":0.0017,"dx":0.0017,"nx":28,"ny":28,"refTime":"2025-04-06T03:00:00:Z","depth":0,"parameterNumber":3,"parameterNumberName":"V-component_of_WINDS"},"data":[0,0,0,0,0,0,0,0,0,0,0,0,0,0,0,0,0,0,0,0,0,0,0,0,0,0,0,0,0,0,0,0,0,0,0,0,0,0,0,0,0,0,0,0,0,0,0,0,0,0,0,0,0,0,0,0,0,0,-6.5353,-6.5354,0,-6.548,-6.5482,-6.5483,-6.5441,-6.5439,-6.5436,-6.5433,-6.556,-6.5565,-6.5571,0,0,0,0,0,0,0,0,0,0,0,0,0,-6.5069,-6.5074,-6.5352,-6.5354,-6.5356,-6.548,-6.5482,-6.5484,-6.5442,-6.5439,-6.5435,-6.5432,-6.5558,-6.5565,-6.5572,0,0,0,0,0,0,0,0,0,0,0,0,0,-6.5194,-6.5076,-6.5352,-6.535,-6.5351,-6.548,-6.5482,-6.5484,-6.5443,-6.5438,-6.5434,-6.5431,-6.5555,-6.5564,-6.5573,-6.571,0,0,-6.56,-6.5604,0,0,0,0,0,0,0,0,-6.5187,-6.5204,-6.5349,-6.535,-6.5352,-6.5441,-6.5428,-6.556,-6.5444,-6.5408,-6.5433,-6.5428,-6.5523,-6.5534,-6.5567,-6.5716,-6.5721,-6.5601,-6.5606,-6.561,-6.5612,0,0,0,0,0,0,0,-6.5178,-6.5198,-6.5403,-6.5351,-6.5353,-6.5341,-6.5355,-6.5453,-6.5487,-6.5411,-6.5408,-6.5424,-6.5523,-6.5559,-6.557,-6.5723,-6.56,-6.5608,-6.5614,-6.5617,-6.5991,-6.5995,0,0,0,0,0,0,-6.5169,-6.5191,-6.5399,-6.5407,-6.5258,-6.535,-6.5365,-6.5416,-6.5486,-6.5492,-6.5427,-6.5421,-6.5546,-6.556,-6.5574,-6.574,-6.561,-6.5618,-6.5623,-6.5986,-6.5992,-6.5997,0,0,0,0,0,0,-6.5163,-6.5188,-6.5394,-6.5299,-6.5324,-6.5359,-6.5418,-6.5421,-6.5457,-6.5498,-6.5504,-6.5458,-6.5543,-6.5562,-6.5677,-6.5743,-6.5622,-6.563,-6.5981,-6.5988,-6.5994,-6.6071,0,0,0,0,0,0,-6.5155,-6.5186,-6.5239,-6.53,-6.5329,-6.5496,-6.5422,-6.5427,-6.5473,-6.5466,-6.5528,-6.5535,-6.5541,-6.5664,-6.5686,-6.5753,-6.5637,-6.5975,-6.5984,-6.5992,-6.6063,-6.608,-6.6094,0,0,0,0,0,-6.5145,-6.5255,-6.5242,-6.5268,-6.5397,-6.55,-6.5516,-6.5523,-6.5478,-6.5532,-6.5558,-6.5533,-6.5733,-6.5676,-6.57,-6.5772,-6.5971,-6.5981,-6.5991,-6.6056,-6.6077,-6.6094,0,0,0,0,0,0,-6.5199,-6.5263,-6.5249,-6.5382,-6.5436,-6.5492,-6.556,-6.5544,-6.5611,-6.5602,-6.5606,-6.562,-6.5739,-6.5766,-6.5702,-6.5908,-6.5845,-6.5861,-6.5886,-6.5906,-6.5921,-6.5912,-6.5644,0,0,0,0,0,-6.5227,-6.5307,-6.5357,-6.5469,-6.5497,-6.5524,-6.5569,-6.557,-6.5625,-6.5647,-6.5682,-6.5736,-6.581,-6.586,-6.5931,-6.6067,-6.6079,-6.6128,-6.6144,-6.6156,-6.617,-6.6244,-6.6266,-6.6031,-6.6031,-6.603,0,0,-6.5284,-6.5329,-6.5378,-6.5482,-6.5523,-6.5604,-6.5543,-6.5632,-6.5692,-6.566,-6.5771,-6.5799,-6.5859,-6.5986,-6.6043,-6.6012,-6.6238,-6.617,-6.6179,-6.6186,-6.6257,-6.6279,-6.6299,-6.6038,-6.6036,-6.6035,0,0,-6.543,-6.5473,-6.5571,-6.5615,-6.5679,-6.5697,-6.572,-6.578,-6.5797,-6.591,-6.5888,-6.5958,-6.6087,-6.6131,-6.617,-6.6334,-6.6313,-6.6357,-6.6439,-6.6511,-6.653,-6.6546,-6.6605,-6.6625,-6.637,-6.637,-6.6371,0,-6.5493,-6.5616,-6.5623,-6.5714,-6.576,-6.5737,-6.5836,-6.5877,-6.5961,-6.5993,-6.5958,-6.612,-6.6158,-6.6295,-6.6335,-6.6368,-6.6394,-6.635,-6.6527,-6.6543,-6.6559,-6.6614,-6.6636,-6.6375,-6.6375,-6.6374,-6.6374,0,-6.569,-6.5776,-6.5847,-6.5931,-6.5985,-6.6079,-6.6099,-6.6153,-6.6149,-6.617,-6.6284,-6.633,-6.641,-6.6443,-6.6439,-6.6579,-6.6558,-6.6525,-6.6462,-6.6586,-6.6638,-6.666,-6.6383,-6.6381,-6.6379,-6.6378,0,0,-6.5873,-6.596,-6.5986,-6.6024,-6.6095,-6.616,-6.6253,-6.6334,-6.6379,-6.6438,-6.6516,-6.6626,-6.6597,-6.6641,-6.6642,-6.6706,-6.6833,-6.6665,-6.6666,-6.6694,-6.6989,-6.7013,-6.7038,-6.6819,-6.6824,-6.6827,-6.6984,0,-6.6024,-6.619,-6.62,-6.6349,-6.6428,-6.6408,-6.6489,-6.654,-6.6563,-6.6632,-6.6655,-6.6734,-6.6689,-6.6715,-6.6777,-6.6804,-6.6892,-6.6793,-6.6891,-6.6894,-6.6876,-6.7065,-6.7091,-6.7237,-6.7005,-6.7008,-6.7011,0,-6.6223,-6.629,-6.6449,-6.6508,-6.6542,-6.6615,-6.6689,-6.6756,-6.6814,-6.6825,-6.6876,-6.6869,-6.6963,-6.6897,-6.7027,-6.696,-6.7,-6.7019,-6.7025,-6.7034,-6.6959,-6.7079,-6.7284,-6.7306,-6.7043,-6.704,-6.7038,0,-6.6341,-6.647,-6.6582,-6.6615,-6.6687,-6.6739,-6.6772,-6.6825,-6.6873,-6.6938,-6.6969,-6.7043,-6.7084,-6.7141,-6.7153,-6.7104,-6.7283,-6.7218,-6.7295,-6.7294,-6.7333,-6.733,-6.7547,-6.736,-6.7359,-6.7359,-6.7358,0,-6.6509,-6.6606,-6.6636,-6.6704,-6.6813,-6.6822,-6.6929,-6.6957,-6.7006,-6.7079,-6.7065,-6.7134,-6.7146,-6.7217,-6.7227,-6.7333,-6.7351,-6.7363,-6.7364,-6.7364,-6.7362,-6.739,-6.738,-6.7365,-6.7363,-6.7362,-6.7361,0,-6.6658,-6.6681,-6.6802,-6.6861,-6.6878,-6.6956,-6.7006,-6.7071,-6.7092,-6.7185,-6.7207,-6.7239,-6.7322,-6.7341,-6.7439,-6.7445,-6.7571,-6.7563,-6.7552,-6.7551,-6.7627,-6.7619,-6.7868,-6.7902,-6.7693,-6.7695,-6.7697,0,-6.6763,-6.6838,-6.6906,-6.6955,-6.699,-6.7069,-6.7118,-6.7131,-6.7182,-6.7254,-6.7311,-6.7392,-6.7458,-6.7592,-6.7623,-6.7698,-6.7691,-6.7773,-6.7702,-6.7699,-6.7692,-6.7687,-6.7694,-6.7786,-6.7789,-6.779,-6.7792,0,-6.6948,-6.6957,-6.7029,-6.7106,-6.7166,-6.7227,-6.7285,-6.7325,-6.7345,-6.7404,-6.7489,-6.7541,-6.7642,-6.7723,-6.7798,-6.783,-6.7814,-6.7814,-6.7836,-6.7836,-6.7827,-6.7833,-6.7589,-6.7808,-6.7807,-6.7805,-6.7804,-6.7804,-6.7078,-6.7144,-6.7203,-6.7284,-6.7329,-6.7384,-6.7449,-6.7479,-6.7551,-6.7635,-6.7638,-6.7731,-6.7787,-6.7887,-6.7923,-6.7995,-6.7969,-6.8001,-6.8008,-6.8016,-6.8023,-6.7816,-6.8009,-6.8008,-6.8008,-6.8008,-6.8007,0,-6.7262,-6.7299,-6.7374,-6.7457,-6.7521,-6.7503,-6.7566,-6.762,-6.7703,-6.7757,-6.7823,-6.7921,-6.8,-6.8039,-6.8116,-6.8167,-6.8162,-6.8187,-6.8183,-6.819,-6.8041,-6.8015,-6.819,-6.8189,-6.8189,-6.8189,-6.8189,-6.8189,-6.7365,-6.7476,-6.7491,-6.7624,-6.766,-6.7753,-6.779,-6.7841,-6.7884,-6.7995,-6.8061,-6.8086,-6.8134,-6.8215,-6.8287,-6.8296,-6.8325,-6.8353,-6.8359,-6.8219,-6.8201,-6.8183,-6.8158,-6.836,-6.836,-6.8502,-6.8503,-6.8504]}]]